Location: Cahas Mountain Overlook
(37.0833°N, 80.1000°W)
Time: 07:08:31
(UTC-04:00)

Explorer 7 - Pass Details

Date: 10 February 2026
Orbit: 430 x 540 km, 50.2° (Epoch: 14 March)

Event Time Altitude Azimuth Distance (km) Brightness Sun altitude
Rises 21:10:00 0° 307° (NW) 2,572 11.0 -39.2°
Enters shadow 21:10:51 - 313° (NW) 2,314 10.7 -39.4°
Reaches altitude 10° 21:13:27 10° 340° (NNW) 1,722 - -39.9°
Maximum altitude 21:14:59 12° 3° (N) 1,617 - -40.2°
Drops below altitude 10° 21:16:32 10° 26° (NNE) 1,749 - -40.5°
Sets 21:20:07 0° 59° (ENE) 2,665 - -41.1°
